CAPE
1922 2076 2007 2108 2042 2212 2103 1924 2141 2421 2373 2262 2210 2107 2109 2002 1862 1939 1829 1976 1771 1909 1834 1168 698 965 1189 1319 1162 1682 1841 1410 1157 1487 2192 2324 1997 2334 2185 2851 2181 2545 2445 2148 1670 2014 2286 2284 2260 2290 1997 1882 1535 1392 1320 1416 1718 1458 1266 1312 1141 1317 1474 1704 1364 1186 1150 1002 850 679 862 1260 1984 2712 2696 2936 3868 4254 3161 3399 4226 4292 3581 3358 3790
1953 2027 1929 1938 1930 1856 1872 1828 2041 1998 2111 2210 2162 1976 1949 1812 1738 1863 1668 1912 1869 1846 2125 1738 813 520 862 896 1127 1342 1898 1552 1192 952 1536 1952 2105 1960 2079 3256 3467 2571 2696 2202 2436 2150 2435 2617 2326 2105 2307 2165 1614 1373 1307 1251 1262 1395 1462 1423 1067 1024 1205 1260 1372 1301 1146 1008 882 1059 904 1094 1014 2737 3194 3548 3754 3948 3702 3011 3610 4101 3554 3366 3303
1855 1801 1869 1849 1770 1751 1639 1556 1406 1528 1762 2041 2075 1729 1660 1696 1668 1653 1352 1715 1733 1661 2044 2011 1405 646 574 763 942 1092 1590 1861 1402 1102 992 1260 1726 1503 1284 2135 3029 2607 2362 2784 2716 2338 2229 2685 2236 1891 2057 2092 1780 1372 1329 1309 1327 1382 1297 1211 1181 917 1015 1448 1543 1474 1160 1131 1064 998 672 1041 1410 1214 2328 4235 4025 4346 4402 3734 3661 3916 3879 3586 3149
1788 1821 1836 1808 1648 1507 1554 1654 1696 1780 1697 1777 1979 1915 1617 1660 1598 1528 1476 1711 1455 804 1627 2066 1913 1352 806 753 746 1126 1288 1872 1577 1308 1063 1097 1314 1339 1227 1537 2046 2161 1949 2033 2061 2198 2085 1972 1664 1688 1636 1911 2074 2022 1632 1477 1741 1721 1612 1329 1047 1002 961 1084 2103 2212 1664 1426 1498 1130 1136 934 952 803 1062 2455 3391 4377 4624 4092 3799 3817 4201 3980 3307
1573 1716 1873 1705 1560 1509 1531 1576 2148 2106 1786 1771 1851 1885 1866 1463 1724 1416 1743 1858 1758 1429 1818 2294 2192 2033 1672 1183 743 910 1137 1474 1978 1485 1004 918 1005 1200 1241 1371 1872 2191 2153 2054 2156 2154 2108 1941 1790 1552 1756 1794 2269 1845 1570 1981 1723 1658 1568 1438 1406 1606 1626 1475 1777 2075 2405 2330 2108 1959 1762 1561 1307 1288 1515 1234 1695 3412 4296 4480 3620 3914 4282 3864 3309
1571 1757 1755 1586 1454 1428 1506 1645 1728 1782 1671 1662 1666 1014 821 947 1718 1780 1903 1447 1418 1188 1877 1794 1788 2342 2053 1460 835 818 1194 1316 1767 1832 931 786 897 965 886 1186 1536 1980 2196 2049 2160 2267 2179 2369 1798 1847 1712 2032 2021 1964 1774 1923 2124 1792 1723 1713 1456 1446 1626 1919 2024 1927 1943 1955 1975 1728 1650 1417 1466 1436 1705 2510 2293 1998 3268 3999 4127 3640 3462 3722 3903
1842 1815 1660 1585 1478 1466 1771 1599 1578 1569 1483 1672 1791 1171 744 907 1559 1774 1758 860 656 647 772 1201 1224 2103 2434 1916 1712 1468 1486 1346 1442 1645 1048 813 886 695 731 799 984 1769 2041 2033 2063 2214 2126 2026 2209 1977 1600 1546 1716 1684 1899 1991 1695 1565 1551 1775 1942 1702 1435 1472 1562 1842 2107 1750 1388 1472 1613 1552 1552 1544 1507 1930 3402 3176 2728 2926 3289 3695 4085 3864 3919
1907 1843 1678 1396 1428 1660 1795 1963 2047 2191 2063 1984 1845 1891 1570 1287 1645 1816 985 605 1724 1072 834 900 1172 1330 1850 2080 1763 1712 1782 1669 1725 1797 1490 980 749 677 632 601 663 1080 1105 1745 1926 1946 2079 2004 1783 2083 2114 2079 1742 1654 1471 1672 1995 1730 1334 1457 1708 1875 1800 1251 961 985 1315 1430 1154 1077 1001 1319 1591 1592 1746 2205 3762 3604 3401 2966 2548 2702 3763 4831 4308
1991 1797 1622 1540 1582 1828 2004 1973 1951 1975 2140 2088 2084 1768 1439 702 1332 1977 1980 1475 850 712 833 951 1054 1180 1387 1588 1743 2090 2031 1707 2302 1658 1926 1516 834 765 632 524 442 622 800 851 1302 1745 1899 1984 1926 2018 2318 2609 2730 2639 2189 1742 1612 1487 1355 1390 1520 1654 2054 1908 1499 1497 1532 1465 1410 1339 1290 1434 1651 1827 1834 2068 2805 2963 2592 3586 3458 2916 2496 3106 4517
1908 1827 1696 1720 1730 1928 2369 2266 2206 1982 1605 1461 1595 1871 1625 1281 1044 828 1839 1330 1624 1110 785 872 1029 1243 1490 1133 983 1032 1422 1667 1476 1295 1516 2042 1427 834 893 818 624 505 621 695 755 1040 1369 1412 1360 1851 2694 2938 2590 2956 3104 2402 2243 1534 1013 1074 1435 1884 2162 2100 1840 1534 1524 1682 1502 1238 1232 1214 981 1356 1658 1825 2024 2524 2832 3225 3749 3918 3515 3453 3273
2148 1838 1939 1885 2048 2247 2331 2190 2244 1907 1369 1417 1706 988 867 1031 1278 1337 1393 1427 1061 673 902 1130 1064 1248 974 1424 1448 1334 1846 1696 1762 1227 1329 1347 1882 1742 1538 1611 1494 948 667 921 1199 901 848 946 1151 1215 1410 1828 2606 3765 3174 2675 2445 2158 1841 2124 3089 2456 1776 1630 1862 1811 1560 1560 1445 1344 1317 1361 1461 1552 1464 1445 1522 1687 1862 3046 3584 3509 3662 3689 3189
2266 2211 2075 2285 2309 2411 2242 2358 2254 1920 1264 1213 1285 909 469 528 589 523 682 880 1370 1001 916 695 890 1613 2245 2110 2180 1967 1805 1412 1144 1195 1381 1454 1908 2024 1796 1832 1968 2122 2028 1590 1498 1367 968 832 974 1027 1190 1921 2310 2919 3352 2941 2627 2542 2359 2240 2100 2064 2542 2803 2165 1833 1781 1903 1842 1748 1536 1422 1544 1717 1857 1683 1725 1669 1903 2329 3161 3788 3802 3394 3706
2332 2367 2533 2622 2424 2375 2370 2216 1933 1712 1443 1180 1557 1315 1211 430 592 488 580 593 602 548 811 1090 1619 1640 1582 1744 1797 1841 1717 1538 995 944 1122 1300 1389 2094 1728 1475 1445 1624 1870 2190 1988 1796 1651 1309 1222 1189 997 1880 1903 1816 1950 2676 3125 2394 2718 2670 2607 2501 2191 1831 1890 3008 2283 1968 2197 2331 2062 2126 2238 2136 1941 2005 2197 2210 2035 1934 2269 3292 3872 3440 2703
2334 2364 2826 3032 2669 2546 2148 2093 2033 1755 1829 1628 1568 1448 1201 932 578 566 571 582 664 725 1158 1404 1652 1732 1666 1679 1402 1508 1676 1790 1095 940 1007 1001 1131 1148 1882 2086 2429 1270 1224 1674 2242 2108 2208 2436 2366 2101 1837 1800 1834 2034 2060 1833 1997 3290 3737 3668 3356 3315 3159 2191 2111 2056 2464 2542 2359 2148 2444 2738 2630 2643 2607 2624 2489 1933 2104 2577 2755 3404 4013 4157 3681
2401 2584 2827 2823 2611 2482 2104 2310 2048 1829 1594 1688 1574 1499 1250 1341 1070 668 648 646 760 756 770 1071 1323 1582 1573 1505 1560 1500 1506 1430 1187 1132 1013 947 861 824 1831 2094 2056 2058 1858 1459 2528 2575 2610 2703 2436 2225 2452 2680 2566 2545 2663 2674 2725 2586 2969 3323 3587 2912 2568 3200 3303 3040 3118 3142 2674 2348 2273 2306 2637 3144 3238 3020 3069 3392 2417 2993 3196 3431 3657 3952 4220
2344 2419 2377 2831 2661 2400 2222 2240 2008 1743 1970 1657 1394 1310 1156 677 782 723 817 1005 976 1047 1061 1249 1351 1426 1645 1533 1451 1561 1504 1085 1134 1072 1016 906 765 1078 1549 2047 2110 1781 1960 2137 2304 2180 2335 2577 2490 2302 2271 2573 2544 2426 2423 2477 2049 2285 2623 3150 3118 2986 2858 2462 1989 2160 2754 3252 2741 2620 2479 2661 2731 4007 3310 3211 2994 3047 2655 3119 3582 3422 2585 3727 3386
2255 2318 2310 2554 2415 2592 2571 2491 2276 2056 1989 1938 1721 1444 1298 1120 993 946 861 876 894 884 909 916 1474 1464 1498 1559 1601 1613 1516 1311 769 780 777 727 699 911 1398 1660 1894 1983 2077 2272 2178 2399 2664 2650 2672 2596 2492 2436 2393 2064 1916 2810 2684 2413 2381 2174 2387 2919 2533 2484 1980 1640 1567 1781 1805 1631 2201 2744 2320 1876 2055 2410 2803 2711 2622 2760 2024 2964 2302 2320 2300
2301 2273 2191 2160 2350 2528 2606 2440 2432 2224 1895 1858 1648 1658 1531 1467 1010 1171 856 1059 1132 1027 1011 944 1090 1251 1271 1315 1352 1359 1233 883 684 583 529 461 491 898 1194 1065 1269 1476 1945 2408 2161 1924 1861 2312 2400 2588 2587 2404 1843 1628 1674 2354 2366 2522 2118 1426 1709 2571 2579 2258 1884 1852 1503 1199 1299 1654 1756 1788 1845 1964 2307 2372 2012 1848 2639 2384 2414 2129 2123 2546 2321
2376 2342 2307 2270 2232 2489 2555 2419 2374 2380 2234 2003 1754 1643 1608 1519 1452 1107 1125 1290 1272 1325 1097 831 912 805 985 1257 1125 1195 1131 1100 741 685 600 492 508 908 1475 1653 1815 1954 1903 2021 1539 1933 2327 2067 1988 2108 2204 2235 1681 1512 1409 1578 2096 2044 2127 1469 1811 2081 1530 1879 1785 1594 1828 2266 2788 3194 2474 2043 1540 1583 1766 993 841 724 1528 2158 2433 2474 3045 2308 2234
2481 2518 2460 2251 2177 2293 2075 2104 2627 2621 2588 2284 2051 1938 1667 1550 1508 1515 700 675 645 1038 1416 1069 1080 1149 1154 1090 1178 1343 1456 1535 847 690 631 638 611 801 1318 1674 1910 1584 1841 1830 2103 2211 2244 2263 2018 1663 1250 1182 1120 1020 699 607 1473 1874 2006 1494 1329 2185 2286 2061 2005 2234 2573 2457 2486 2777 2256 1968 2419 3109 2913 2914 2784 2072 2105 2297 2234 2345 2790 2988 2446
2647 2689 2588 2475 2342 2239 2227 2098 2803 2762 2762 2590 2185 2085 1926 1797 1735 1465 910 623 668 638 607 669 1024 1072 1586 1471 1391 1383 1248 1403 1410 814 751 670 589 637 1388 1279 1114 1146 2064 1915 1869 1697 1612 2103 2120 1634 1222 763 584 599 534 457 583 1293 1743 1929 2254 2115 2229 2538 2418 2407 2962 2861 2690 2628 2322 2214 2516 2523 2651 2809 3603 3578 3405 2558 2383 2540 2730 3096 3019
2824 2690 2600 2522 2373 2434 2373 2374 2950 2825 2746 2429 2277 2134 2110 1966 1764 1810 1644 1023 944 937 1005 916 1448 1634 1584 1437 1462 1568 1175 1526 2399 935 817 691 616 583 952 1703 1948 2125 2023 2067 2044 1940 1976 2078 2184 2033 1254 1008 771 566 471 426 438 428 1066 1057 1248 1493 1591 1923 2245 2285 2168 2183 2082 1879 2332 2281 2147 2398 2319 2528 2756 2956 3316 3305 2810 2872 2527 2367 2764
2766 2690 2588 2451 2450 2408 2317 2296 2194 2079 2616 2539 2418 2345 2180 2053 1961 1778 1690 1709 1693 1658 1679 1573 1634 1715 1352 1506 1676 1876 1548 1064 925 887 818 709 627 612 555 878 1118 1820 2038 2043 1818 1865 1794 1732 1570 1973 941 777 629 500 446 452 444 413 735 804 763 590 476 1094 1087 1582 1608 1729 1291 1818 2144 2071 1947 1941 2081 2199 2331 2249 1903 2514 2494 2276 2690 2417 2245
2673 2573 2461 2351 2285 2137 2218 2170 1948 2101 2026 2686 2500 2281 1976 2051 2033 1933 1781 1637 1606 1686 1612 1510 844 715 867 742 750 815 908 808 836 871 856 776 657 541 538 535 622 1224 1338 1246 1057 1085 1438 1098 1151 1199 792 554 417 401 378 375 394 422 450 467 558 614 651 707 1023 1227 1395 1531 1686 1909 2157 1678 1957 1815 2154 2303 2407 2950 2193 1689 1844 3320 2514 2352 2365
2751 2567 2509 2307 2168 2083 2065 2084 2032 1993 1993 2012 2460 2541 2305 2140 2119 1978 1972 1883 1887 1559 1723 1291 1141 941 934 1072 646 625 892 758 870 864 884 817 750 636 553 514 490 466 596 928 773 1303 885 793 848 980 980 790 512 377 357 350 358 450 554 702 845 959 1009 1035 1020 1290 1261 1391 1170 1417 1403 1715 1765 1918 1800 1951 2071 1974 1858 1796 1744 1901 1994 1980 1373
2577 2559 2328 2286 2170 2077 2007 2088 2034 1975 1966 1854 1892 2425 2538 2347 2231 2159 1931 1862 1868 1898 1857 1414 1346 1296 1883 1334 1200 1641 1862 2212 1734 1480 1118 846 770 710 593 463 438 464 457 458 535 587 654 677 765 867 811 585 359 350 761 966 754 777 937 1031 1020 903 844 774 724 1054 1158 1208 1199 1263 1177 1052 1137 1237 1215 1211 1362 1419 1307 1180 1113 1217 1467 1493 1814
2537 2343 2158 2134 2148 2068 1884 2072 2014 1843 1911 1957 1861 1882 1961 1736 2168 2222 2098 1869 1844 1897 1574 1538 1499 1448 1538 1513 1681 2000 1668 1776 1855 1876 1263 962 950 930 896 805 620 504 496 463 481 588 627 609 660 680 596 548 686 847 969 1008 1047 1024 876 828 658 488 554 795 628 837 806 748 626 601 508 566 595 698 886 980 898 1059 912 987 1046 794 788 1111 1315
2341 2104 1968 1969 1901 1950 1969 1779 1969 1889 1888 1883 1802 1729 1813 1588 1776 1838 1863 1955 1675 1779 1889 1648 1594 1563 1654 1689 1877 1628 1482 1688 1876 1972 1754 1302 1272 1112 1075 1050 1022 959 896 744 839 857 845 866 914 963 976 1000 1069 1077 1084 1097 1034 899 816 681 320 178 168 151 98 157 270 294 342 463 624 736 775 658 751 738 671 720 726 662 740 558 576 733 819
2645 2414 1998 1844 1880 1990 1854 1885 1924 1940 1960 1830 1844 1635 1647 1650 1710 2072 2283 2201 2272 2163 2077 2561 1915 1760 1711 1600 1543 1455 1078 1370 1671 1237 2223 1262 1973 1051 1017 947 822 765 982 981 969 935 868 863 864 873 934 893 695 742 474 559 392 249 136 158 167 147 191 199 256 333 355 298 257 264 248 288 314 316 392 473 561 611 658 773 597 369 516 609 418
2886 2543 2100 2049 1939 1922 2028 1898 1866 1827 1779 1852 1598 1283 1218 1286 1415 1273 1768 1248 1276 1264 1180 1846 1674 2448 1503 1342 1903 2281 1953 2118 1310 953 870 935 996 1055 1118 996 873 836 677 746 648 685 619 447 515 847 663 532 298 288 246 212 203 99 144 74 16 78 159 141 110 141 158 92 61 48 92 73 125 230 288 347 450 481 476 340 499 531 602 706 412
2962 2618 2234 1938 1787 1762 1692 1866 1900 1992 1845 1789 1701 1572 1566 979 1199 1149 1141 1068 1118 1087 989 1045 1029 1049 1642 1752 1118 1060 1002 982 853 803 898 961 956 888 847 800 708 652 626 506 568 543 585 528 531 303 293 184 155 59 116 73 109 156 159 76 98 164 54 48 60 49 11 15 22 41 40 45 77 108 165 174 193 275 363 469 475 719 717 492 652
2860 2539 2201 2062 2034 2023 1832 1866 1992 2055 2086 1903 1795 1769 1428 1466 1118 951 1015 994 862 814 675 626 585 701 873 1144 1131 815 778 725 660 770 684 557 577 600 596 565 535 519 512 442 429 417 325 226 226 253 203 212 175 150 159 186 122 147 148 126 118 145 77 47 90 12 30 73 46 16 13 23 15 17 28 44 49 151 296 381 405 373 328 325 613
2987 2641 2389 2285 2335 2285 2202 2202 2188 2145 1964 1960 1907 1706 1438 1288 1173 1304 730 819 812 716 600 167 0 52 665 438 467 614 608 566 604 631 561 278 36 0 0 0 0 0 0 87 293 366 276 94 173 214 151 168 254 262 245 182 183 108 141 217 134 96 106 87 4 10 6 5 5 6 8 7 5 5 6 18 40 117 134 214 261 310 356 485 576
3025 2780 2656 2595 2441 2586 2308 2172 2146 2173 2045 1976 1773 1478 1565 1329 1168 1046 1296 1156 612 642 576 509 0 0 0 0 0 0 0 63 126 102 0 0 0 0 0 0 0 0 0 68 285 331 259 198 157 159 179 161 176 143 146 191 184 148 108 48 46 66 63 22 14 9 8 9 9 7 4 4 6 7 7 12 18 25 58 75 75 118 156 154 163
3207 2837 2714 2533 2500 2476 2380 2234 2024 2103 2025 2081 1824 1732 1536 1557 1325 1180 1167 1229 1084 1189 1244 341 0 0 0 0 0 0 0 0 0 0 0 0 0 0 0 0 0 0 0 9 96 186 153 26 68 45 122 143 131 124 106 112 34 29 48 82 66 34 49 15 10 10 8 10 10 6 7 7 8 6 10 12 13 9 6 6 7 6 5 6 9
3035 2941 2741 2590 2344 2352 2212 2071 2022 2000 2109 2013 1920 1614 1422 1421 1344 1186 1164 1193 974 1107 896 1009 420 0 0 0 0 0 0 0 0 0 0 0 0 0 2 19 138 131 95 84 79 43 36 40 61 110 98 106 157 70 80 8 19 18 56 18 21 14 7 6 9 10 5 6 8 8 7 8 2 6 8 6 9 9 11 11 8 6 6 6 4
2858 2708 2721 2721 2473 2246 2186 2199 2219 2071 1770 1830 1752 1644 1542 1394 1280 1254 1427 1261 1094 1147 918 1061 641 22 0 0 0 0 0 0 0 0 0 0 0 0 109 301 309 358 261 237 57 42 20 46 52 44 15 3 3 2 3 13 8 53 30 18 18 10 7 6 3 6 10 7 6 8 5 6 5 9 6 6 6 5 5 4 5 5 8 2 2
2350 2136 2077 2300 2330 2287 2352 2260 2110 1756 1822 1655 1801 1666 1384 1354 1332 1354 1300 1382 1335 1207 1040 1441 828 502 309 0 2 0 0 0 0 0 0 0 0 0 17 220 331 388 292 237 152 90 28 14 2 0 0 0 0 0 0 0 1 1 0 5 8 10 0 2 0 13 2 1 4 4 3 4 5 5 4 6 5 5 5 4 4 5 6 8 4
2299 1890 1715 1701 1846 1807 1769 1635 1427 1612 1482 1338 1356 1423 1348 1263 1303 1346 1331 1314 1270 1224 1090 925 956 735 834 381 0 0 0 0 0 0 0 0 0 0 7 125 287 261 229 216 34 8 0 0 0 0 0 1 0 0 0 0 0 0 0 0 1 3 5 5 3 1 4 0 0 0 0 0 1 4 3 2 2 5 5 7 6 5 7 7 8
1834 2047 1875 1719 1638 1552 1428 1367 1268 1287 1336 1358 1424 1458 1295 1240 1087 1033 1001 897 873 976 939 842 822 548 763 506 368 0 0 20 88 192 156 34 8 17 91 212 287 229 161 140 0 0 0 0 0 0 9 7 0 0 2 0 0 0 0 0 0 0 0 0 0 0 0 0 0 0 0 0 0 0 0 0 0 1 3 6 7 6 5 5 7
1674 1585 2061 1691 1413 1383 1397 1263 1272 1270 1287 1252 1230 1220 1136 1015 910 793 735 672 646 739 796 700 554 623 594 456 94 0 145 312 252 258 272 293 252 222 223 317 312 166 151 10 0 0 0 16 0 0 0 12 2 0 0 1 0 0 0 0 0 0 1 0 0 0 0 0 0 0 0 0 0 0 0 0 0 0 0 1 3 3 2 2 3
1457 1404 1760 1661 1390 1498 1193 1222 1122 1174 968 1123 1173 918 783 695 624 700 710 643 601 587 540 490 584 926 1178 444 67 0 199 588 548 490 322 401 459 498 424 274 187 120 27 4 0 0 0 0 0 5 0 0 0 0 0 1 1 0 0 1 0 0 0 0 0 0 0 0 0 0 0 0 0 0 0 0 0 0 0 0 0 0 1 5 5
1413 1253 1458 1410 1483 1289 1078 1087 1161 1149 1197 994 582 430 346 420 437 496 481 418 396 431 470 473 351 592 519 462 302 0 54 548 405 463 570 454 598 328 171 120 81 74 26 0 0 0 14 1 3 40 1 1 0 0 1 4 0 0 0 0 0 0 0 0 0 0 0 0 0 0 0 0 0 0 0 0 0 0 0 0 0 0 0 0 0
1420 1336 1354 1384 1329 1258 1173 964 865 826 690 706 651 587 546 526 457 339 237 304 338 293 252 223 278 286 507 28 124 0 184 372 499 549 465 414 708 441 214 148 146 162 2 0 0 21 64 154 102 7 2 10 9 10 4 3 2 1 0 0 0 0 0 0 0 0 0 0 0 0 0 0 0 0 0 0 0 0 0 0 0 0 0 1 0
1586 1371 1268 1466 1483 1394 1092 1153 759 478 550 585 699 731 672 624 561 409 235 206 277 313 177 209 135 288 400 328 195 180 417 433 554 569 611 242 235 114 21 3 39 2 0 76 148 198 145 19 12 5 8 4 7 8 2 1 0 0 0 0 0 0 0 0 0 0 0 0 0 0 0 0 0 0 0 0 0 0 0 4 4 1 0 0 1
1676 1557 1358 1430 1442 1295 1184 1117 845 594 764 837 837 717 592 470 398 383 228 154 97 238 307 274 247 282 246 428 516 454 390 361 302 520 251 123 19 0 0 0 0 0 115 153 146 140 154 14 0 0 1 1 3 2 4 1 0 0 0 0 0 2 0 0 0 0 0 0 0 0 0 0 0 0 0 0 0 0 3 6 10 9 11 7 1
1819 1640 1298 1334 1290 1290 1210 925 958 871 868 738 440 371 480 544 520 436 306 222 178 182 187 269 299 313 177 325 326 323 267 265 233 221 168 86 138 75 94 165 164 161 151 176 184 22 5 0 0 0 0 0 0 10 3 1 0 0 0 0 0 0 0 0 0 4 1 4 0 0 0 0 0 0 5 4 1 2 3 3 10 7 12 10 11
1714 1595 1362 1332 1288 1252 1102 897 794 802 600 358 411 498 483 613 587 377 360 324 281 267 256 212 362 372 368 351 430 433 313 359 435 472 362 298 340 391 400 450 250 115 86 53 49 3 9 0 0 0 0 0 0 0 2 0 0 0 0 0 30 4 0 17 28 5 8 4 0 1 1 2 2 2 2 0 3 7 8 10 12 12 12 13 13
1470 980 930 1245 1298 1034 803 780 760 628 235 248 538 649 598 676 614 503 378 401 401 404 376 392 376 439 522 602 561 656 543 496 641 665 494 448 613 687 568 381 164 70 66 31 18 13 2 0 0 0 0 0 0 0 0 0 0 0 0 0 0 0 0 0 0 0 0 0 0 0 1 5 4 7 3 4 7 10 6 10 16 12 9 16 11
1609 1352 1259 1316 1234 1049 753 685 338 204 229 317 503 636 525 582 638 562 527 484 446 488 508 436 524 640 696 686 700 798 781 704 697 632 568 614 699 757 548 274 169 117 68 45 14 0 3 2 3 0 0 3 1 4 0 0 0 0 0 0 0 0 0 0 0 0 0 0 0 0 0 0 0 2 7 8 13 7 9 9 8 6 5 10 13
1655 1524 1485 1414 1245 872 371 198 99 107 279 389 438 415 605 579 519 617 653 637 641 597 641 707 755 777 885 862 635 680 802 876 760 744 760 800 748 409 245 154 131 108 69 15 5 7 4 10 10 4 6 6 2 0 0 0 0 0 0 0 0 0 0 0 0 0 0 0 0 0 0 0 3 1 1 2 9 11 8 0 0 0 1 2 7
Wind_Speed
15 16 17 17 17 16 16 16 17 18 17 18 19 19 20 21 21 23 26 24 24 24 23 19 16 16 16 17 16 18 19 19 19 20 20 19 19 20 20 22 18 17 16 16 16 14 16 15 15 15 15 14 13 13 12 13 14 14 15 16 16 16 16 15 14 15 15 16 16 14 15 15 14 14 12 12 14 14 11 11 14 11 11 11 16
15 15 15 17 18 18 17 17 18 19 18 19 20 19 19 19 21 24 23 25 25 25 25 23 20 17 17 16 17 17 19 20 19 20 19 20 19 20 20 22 23 20 18 17 15 15 17 16 15 15 15 14 14 13 13 13 13 13 15 15 15 15 16 15 15 15 16 16 15 17 17 17 14 17 14 13 13 14 13 13 14 13 12 14 13
15 13 12 13 14 17 17 17 17 17 17 20 20 19 18 18 21 23 22 26 26 26 27 26 23 20 18 17 17 17 18 19 20 20 19 19 18 18 18 20 22 21 19 19 18 17 16 17 15 15 16 15 15 14 14 14 15 15 15 16 15 15 16 17 16 15 14 16 16 15 15 18 17 17 17 16 15 15 14 14 14 15 15 12 15
12 12 10 10 11 13 15 16 16 17 18 20 18 18 20 21 22 23 23 29 27 26 25 27 26 24 20 18 17 18 18 20 21 20 19 19 19 19 18 19 20 20 20 19 19 18 17 16 16 16 15 16 17 17 17 16 17 16 15 16 16 16 16 18 18 17 17 16 18 16 17 17 17 17 19 19 16 17 17 16 16 16 16 16 15
10 9 9 9 10 11 12 15 17 17 16 18 18 20 22 22 23 22 27 28 31 32 30 35 29 27 24 19 18 19 19 20 21 20 19 20 20 20 19 20 20 21 20 20 20 19 18 17 18 17 17 17 18 18 17 17 17 17 17 18 18 18 18 18 18 19 18 17 17 18 17 17 17 17 17 17 18 19 19 18 18 18 18 18 17
9 9 9 10 10 9 11 14 17 17 16 16 18 21 22 20 21 24 29 30 30 29 34 37 31 28 26 23 20 21 21 21 23 22 20 21 22 21 20 20 21 22 22 21 21 19 19 19 19 18 18 18 18 19 18 18 19 19 19 19 19 19 19 19 19 18 18 17 18 18 19 18 17 17 18 18 17 18 20 20 19 19 19 19 21
8 8 9 10 10 9 11 13 16 17 17 16 18 21 21 19 21 25 28 26 28 28 33 34 34 31 28 26 27 25 22 22 24 24 22 22 22 22 21 21 21 22 22 22 21 20 19 19 19 18 18 18 17 18 19 19 19 19 21 21 21 19 19 19 19 18 18 17 18 18 19 20 19 18 19 20 18 18 18 19 19 21 22 21 21
8 8 9 10 10 10 11 14 15 17 17 16 16 17 19 21 22 23 27 24 30 30 30 31 30 33 34 31 28 29 24 24 26 26 25 24 24 23 23 22 22 22 22 23 22 22 21 20 19 19 19 18 18 19 19 20 22 21 23 22 22 21 20 20 19 19 18 18 17 18 20 21 21 21 21 22 21 20 20 19 18 19 21 23 22
6 7 8 8 9 9 11 14 14 15 15 15 16 17 18 19 22 25 27 28 30 29 29 30 32 32 32 32 34 35 39 38 33 31 27 24 23 23 23 22 23 23 23 22 23 23 22 21 20 20 20 19 20 20 21 24 22 22 24 23 22 21 21 21 21 20 20 19 18 20 20 20 21 22 22 22 22 20 21 20 19 20 20 19 22
5 6 7 7 8 9 9 10 12 13 14 14 15 16 17 21 23 21 25 26 30 31 32 32 33 32 35 32 31 31 28 29 29 30 30 28 24 24 24 24 23 24 25 24 23 23 22 22 21 20 22 21 21 23 25 25 24 22 23 23 23 22 21 21 20 20 20 20 19 20 20 19 20 22 23 23 23 23 21 21 19 21 20 20 20
5 6 6 7 7 8 8 8 9 10 14 16 15 12 12 25 30 31 31 31 28 29 30 33 34 33 28 27 27 26 28 29 29 26 21 20 24 24 24 25 25 25 24 24 24 23 23 22 23 23 22 23 25 27 25 23 22 22 21 20 22 22 21 19 19 20 19 19 20 21 20 20 21 23 23 23 24 23 23 22 21 21 22 21 20
5 6 6 6 7 8 8 7 7 8 12 16 19 21 24 27 26 24 30 33 33 31 32 31 31 32 33 31 30 27 26 27 28 26 24 22 24 25 24 24 26 26 25 23 24 24 24 25 26 26 25 25 24 25 25 23 23 23 22 21 20 18 18 20 19 19 19 19 19 19 20 21 23 25 26 26 27 26 26 25 23 23 23 22 22
5 6 7 7 7 9 9 8 7 7 11 17 19 19 21 24 23 22 26 33 34 32 31 31 35 35 32 29 28 28 27 29 27 26 26 27 27 24 23 23 24 27 26 23 23 25 26 25 25 26 26 26 24 24 25 26 27 24 23 23 21 21 20 17 16 17 18 17 17 16 19 22 22 24 27 29 30 27 27 25 25 24 24 21 20
5 6 7 7 7 8 8 9 9 8 10 14 16 16 15 19 22 20 20 27 32 31 30 29 33 34 32 29 28 28 27 31 29 28 28 28 28 26 24 23 33 29 25 23 24 25 25 26 27 26 25 24 24 24 25 25 27 29 27 26 24 23 23 21 19 16 17 17 17 16 19 22 22 24 27 29 29 27 27 26 26 25 24 23 22
6 6 7 7 7 7 7 8 9 10 11 11 13 14 14 14 15 15 15 17 25 29 27 27 32 37 35 31 29 28 27 28 29 31 31 32 31 29 25 23 25 26 24 21 24 25 25 26 25 25 24 24 24 24 25 27 27 26 25 24 23 23 23 23 23 23 24 23 20 17 18 20 22 24 26 28 27 28 28 27 27 26 27 27 26
5 5 6 7 6 5 5 6 8 9 10 11 12 12 11 10 11 12 11 10 17 24 27 28 31 35 36 31 28 25 24 27 26 27 28 28 31 28 25 24 23 22 21 22 23 24 24 24 25 24 23 22 23 26 26 27 25 22 22 22 21 21 22 24 24 25 25 28 26 22 20 21 25 26 25 28 29 28 28 28 28 30 28 28 26
6 6 6 6 7 7 6 6 7 8 9 9 11 11 10 8 7 8 8 6 7 12 19 24 29 31 31 28 25 25 23 29 26 26 25 25 28 25 24 24 23 21 21 22 24 24 24 24 24 24 23 22 23 27 26 26 25 22 22 20 19 22 22 24 24 24 24 23 21 17 19 22 22 22 23 24 27 28 29 31 26 33 31 29 24
7 6 6 6 7 6 6 7 7 8 9 10 10 10 9 7 5 6 6 7 6 5 7 14 19 23 24 23 23 22 21 25 27 26 26 28 25 22 23 23 22 21 20 21 25 24 20 20 21 22 22 22 24 27 27 28 23 21 22 18 17 19 21 24 25 26 28 23 20 18 19 21 22 21 22 23 23 31 30 26 27 33 29 29 29
7 6 6 6 7 8 8 8 7 9 9 9 9 10 10 8 5 3 2 2 4 4 3 4 7 12 16 22 22 23 23 24 25 23 26 25 22 22 23 23 22 22 22 22 23 21 22 22 18 19 21 23 32 36 35 28 24 22 21 19 18 21 21 23 25 25 26 28 27 27 25 24 24 25 24 20 22 26 29 27 28 29 30 32 32
9 7 6 7 8 8 7 8 7 8 9 9 8 8 9 9 8 5 3 1 2 1 1 1 1 3 5 9 14 19 23 25 25 22 23 20 17 19 21 22 23 22 22 23 24 25 23 22 22 20 19 23 27 28 30 30 26 24 24 22 20 21 25 25 25 26 27 29 29 29 26 25 23 25 25 25 27 30 30 30 29 29 29 32 33
9 10 8 8 8 8 7 8 9 8 7 9 9 8 7 8 8 8 6 2 1 1 1 2 1 2 2 3 4 7 13 16 20 17 17 16 16 16 19 19 20 20 22 22 23 23 22 22 22 25 24 24 25 26 28 29 28 25 25 24 25 30 33 28 27 25 27 27 27 27 26 26 26 26 26 24 26 28 31 31 31 32 32 33 32
9 10 9 9 7 7 7 7 9 8 7 7 8 9 8 7 7 7 5 6 6 5 4 3 3 3 3 2 2 3 5 7 14 13 13 14 15 13 17 18 19 21 22 22 23 24 25 26 25 29 30 29 30 33 32 31 29 28 26 31 38 36 31 29 27 26 26 26 26 24 24 26 25 25 26 26 25 26 26 28 28 32 32 31 32
10 10 11 10 9 6 5 5 6 7 8 8 7 7 7 7 6 6 6 5 5 5 4 3 3 4 4 4 5 6 8 10 8 11 12 11 11 11 11 17 25 21 21 22 23 25 26 26 24 29 33 34 35 36 37 36 35 31 36 36 35 35 28 25 25 24 23 23 22 20 22 22 23 23 24 26 29 29 27 27 32 31 30 30 28
12 11 11 11 10 8 7 5 5 5 7 8 7 7 7 6 6 5 5 4 4 4 4 4 5 2 2 2 4 6 8 8 7 6 13 12 11 10 8 5 13 19 20 21 25 24 25 24 25 32 34 35 34 33 32 29 26 31 32 31 30 28 25 23 22 22 20 20 20 20 20 20 22 21 23 26 29 32 32 28 27 32 37 33 31
16 14 12 12 11 10 8 6 6 5 5 7 9 8 8 6 5 4 4 4 4 3 3 4 5 4 2 3 4 2 5 5 5 6 11 14 12 11 9 8 6 12 15 16 17 22 31 33 35 33 33 32 29 28 27 24 19 18 21 24 24 23 22 22 21 21 21 20 20 19 20 22 23 23 24 26 27 28 30 30 29 29 31 34 35
18 17 16 14 12 12 10 8 7 6 4 4 5 7 7 7 5 5 4 3 3 2 3 4 4 3 4 5 2 4 4 4 5 7 8 11 9 8 8 8 9 12 13 17 27 28 28 30 29 28 27 25 25 24 22 25 27 26 25 26 25 24 25 25 23 22 21 21 22 22 21 23 25 25 25 27 28 29 31 32 33 32 32 33 34
18 18 18 17 15 14 11 11 10 8 5 5 5 4 6 6 7 6 5 4 3 2 2 4 5 5 5 5 5 6 5 5 5 6 7 6 4 6 5 4 8 12 13 10 18 21 22 19 20 18 16 18 17 17 18 17 20 21 22 23 24 24 24 24 27 27 25 25 24 23 24 24 25 25 25 25 26 27 28 30 30 30 30 32 32
16 17 17 17 16 16 14 15 11 12 9 7 6 5 5 4 4 4 4 5 3 3 3 3 4 4 5 6 7 8 6 5 5 6 7 6 6 6 5 6 13 17 13 12 17 16 17 19 18 13 14 15 16 17 18 20 18 18 17 18 17 20 24 25 nan 25 25 24 23 23 23 24 24 24 25 25 26 26 28 29 29 29 30 31 31
17 16 15 14 15 16 14 16 14 13 14 13 12 12 10 9 8 6 8 6 4 3 2 4 4 4 4 6 6 6 6 6 7 10 11 12 10 9 8 10 19 20 20 21 21 22 19 16 14 14 14 15 16 17 18 18 20 20 19 20 21 23 25 25 25 26 26 25 25 25 25 26 26 26 25 25 25 26 28 28 29 30 30 30 29
19 18 16 14 13 14 14 14 14 14 16 16 15 14 16 15 13 11 9 14 14 12 10 6 6 6 7 6 9 7 7 10 20 23 21 20 19 19 20 23 24 23 23 24 20 23 20 15 15 16 17 19 18 19 20 21 22 nan 24 nan nan nan 27 26 26 27 28 nan nan nan nan nan 24 24 24 24 25 25 27 27 28 29 29 29 30
19 19 19 16 15 12 13 14 16 15 15 16 17 16 14 16 19 18 16 14 14 15 12 12 12 11 10 8 13 18 18 18 20 22 23 22 22 24 25 26 28 27 23 22 20 19 20 18 17 18 20 20 20 nan 21 nan 23 24 24 nan nan 27 nan nan nan nan nan nan nan nan nan nan nan 25 25 25 25 25 25 26 27 28 27 27 27
18 18 19 20 21 15 13 14 15 16 16 16 17 17 16 16 16 18 17 17 16 14 15 15 15 13 14 13 12 13 16 16 21 22 22 23 23 24 25 27 26 26 21 17 15 17 18 18 18 21 22 21 21 22 22 22 23 23 23 24 25 26 nan nan nan nan nan nan nan nan nan nan nan nan nan nan nan 25 26 26 26 26 27 27 27
19 18 18 20 21 19 17 16 15 16 16 17 16 16 16 16 16 17 17 18 17 16 17 18 nan nan 18 18 18 15 18 19 21 22 23 23 nan nan nan nan nan nan nan nan 17 18 18 nan 19 21 21 20 22 22 23 23 23 23 24 24 25 nan 27 nan nan nan nan nan nan nan nan nan nan nan nan nan nan 25 25 25 25 25 25 26 27
20 20 20 20 19 20 20 20 18 17 16 16 16 17 16 16 16 16 18 16 16 16 19 21 nan nan nan nan nan nan nan nan 22 22 nan nan nan nan nan nan nan nan nan nan 19 18 20 20 20 21 22 23 23 23 23 24 25 24 24 nan nan nan nan nan nan nan nan nan nan nan nan nan nan nan nan nan nan nan nan nan nan 25 25 26 26
21 21 22 21 20 20 20 21 21 19 18 17 17 17 17 17 16 17 17 16 16 16 15 18 nan nan nan nan nan nan nan nan nan nan nan nan nan nan nan nan nan nan nan nan nan 18 20 nan nan nan 23 24 23 24 24 25 nan nan nan nan nan nan nan nan nan nan nan nan nan nan nan nan nan nan nan nan nan nan nan nan nan nan nan nan nan
20 21 22 22 20 21 21 21 22 22 20 19 18 17 17 18 17 17 18 17 17 16 16 18 23 nan nan nan nan nan nan nan nan nan nan nan nan nan nan nan 17 18 nan nan nan nan nan nan nan 23 nan 23 24 nan nan nan nan nan nan nan nan nan nan nan nan nan nan nan nan nan nan nan nan nan nan nan nan nan nan nan nan nan nan nan nan
20 21 22 22 22 22 22 23 23 23 23 21 20 19 19 19 19 18 19 18 18 18 20 25 26 nan nan nan nan nan nan nan nan nan nan nan nan nan 14 16 17 19 19 20 nan nan nan nan nan nan nan nan nan nan nan nan nan nan nan nan nan nan nan nan nan nan nan nan nan nan nan nan nan nan nan nan nan nan nan nan nan nan nan nan nan
22 22 22 23 23 24 24 24 24 26 24 24 23 22 21 21 20 20 20 19 19 19 20 22 23 22 21 nan nan nan nan nan nan nan nan nan nan nan nan 15 15 18 19 20 21 nan nan nan nan nan nan nan nan nan nan nan nan nan nan nan nan nan nan nan nan nan nan nan nan nan nan nan nan nan nan nan nan nan nan nan nan nan nan nan nan
25 32 34 30 26 25 27 26 26 25 25 25 25 25 24 23 23 22 21 20 21 20 19 21 20 18 19 27 nan nan nan nan nan nan nan nan nan nan nan 15 15 17 18 20 nan nan nan nan nan nan nan nan nan nan nan nan nan nan nan nan nan nan nan nan nan nan nan nan nan nan nan nan nan nan nan nan nan nan nan nan nan nan nan nan nan
27 28 32 32 28 27 26 27 27 26 27 28 29 28 27 24 23 23 22 21 21 21 20 20 19 18 24 28 26 nan nan nan nan 15 16 nan nan nan nan 16 16 16 18 19 nan nan nan nan nan nan nan nan nan nan nan nan nan nan nan nan nan nan nan nan nan nan nan nan nan nan nan nan nan nan nan nan nan nan nan nan nan nan nan nan nan
28 29 32 31 28 30 28 27 28 27 29 29 30 30 29 26 24 23 23 21 21 21 21 20 19 20 23 27 nan nan 20 17 15 14 15 16 17 17 17 16 16 18 18 nan nan nan nan nan nan nan nan nan nan nan nan nan nan nan nan nan nan nan nan nan nan nan nan nan nan nan nan nan nan nan nan nan nan nan nan nan nan nan nan nan nan
30 30 31 32 31 29 30 29 29 30 29 29 29 30 30 28 26 26 25 23 21 21 20 20 20 22 30 33 nan nan 18 16 15 15 14 16 17 17 17 17 17 19 nan nan nan nan nan nan nan nan nan nan nan nan nan nan nan nan nan nan nan nan nan nan nan nan nan nan nan nan nan nan nan nan nan nan nan nan nan nan nan nan nan nan nan
31 30 31 32 32 30 29 29 29 30 32 30 28 28 29 30 29 28 26 24 21 21 21 21 21 22 28 27 26 nan nan 16 16 16 16 14 16 18 16 18 nan nan nan nan nan nan nan nan nan nan nan nan nan nan nan nan nan nan nan nan nan nan nan nan nan nan nan nan nan nan nan nan nan nan nan nan nan nan nan nan nan nan nan nan nan
31 31 32 31 31 29 27 24 25 26 28 30 28 28 28 29 29 28 27 25 23 21 21 21 21 22 27 nan 26 nan 18 16 16 17 17 16 16 18 19 20 21 23 nan nan nan nan nan 23 23 nan nan nan nan nan nan nan nan nan nan nan nan nan nan nan nan nan nan nan nan nan nan nan nan nan nan nan nan nan nan nan nan nan nan nan nan
30 30 31 31 30 28 27 24 23 24 25 27 28 29 29 30 31 30 27 25 24 22 21 21 22 22 25 26 24 21 18 17 17 16 18 18 17 19 nan nan nan nan nan nan 25 25 24 nan nan nan nan nan nan nan nan nan nan nan nan nan nan nan nan nan nan nan nan nan nan nan nan nan nan nan nan nan nan nan nan nan nan nan nan nan nan
28 28 29 30 29 29 28 28 28 26 26 25 27 29 30 31 31 29 26 24 nan 23 22 21 21 21 22 22 22 20 18 17 17 17 16 16 nan nan nan nan nan nan 23 24 24 25 24 nan nan nan nan nan nan nan nan nan nan nan nan nan nan nan nan nan nan nan nan nan nan nan nan nan nan nan nan nan nan nan nan nan nan nan nan nan nan
27 27 27 28 28 28 28 28 28 27 26 25 26 28 29 30 29 27 25 22 21 20 20 20 20 21 21 21 20 20 20 19 18 19 18 nan 21 nan nan 24 24 23 23 24 24 nan nan nan nan nan nan nan nan nan nan nan nan nan nan nan nan nan nan nan nan nan nan nan nan nan nan nan nan nan nan nan nan nan nan nan nan nan nan nan nan
27 27 26 26 26 26 25 24 25 26 25 25 26 26 27 26 25 25 25 24 20 17 17 18 19 21 21 21 22 21 21 20 20 21 22 22 22 22 23 24 24 23 nan nan nan nan nan nan nan nan nan nan nan nan nan nan nan nan nan nan nan nan nan nan nan nan nan nan nan nan nan nan nan nan nan nan nan nan nan nan nan nan nan nan nan
29 27 25 25 25 25 23 22 23 24 24 24 25 25 24 24 24 25 25 22 20 18 16 16 18 20 21 22 22 22 22 22 22 22 22 22 22 22 23 23 23 nan nan nan nan nan nan nan nan nan nan nan nan nan nan nan nan nan nan nan nan nan nan nan nan nan nan nan nan nan nan nan nan nan nan nan nan nan nan nan nan nan nan nan nan
31 29 27 26 25 24 23 24 24 23 24 23 24 24 25 24 25 24 23 21 19 17 17 17 18 20 21 22 23 23 23 22 22 22 22 22 22 22 22 23 23 23 nan nan nan nan nan nan nan nan nan nan nan nan nan nan nan nan nan nan nan nan nan nan nan nan nan nan nan nan nan nan nan nan nan nan nan nan nan nan nan nan nan nan nan
33 30 29 28 26 25 25 24 nan 23 23 23 24 25 25 25 23 23 22 20 17 17 17 17 19 20 21 22 23 23 23 23 23 23 22 22 22 22 22 24 24 24 nan nan nan nan nan nan nan nan nan nan nan nan nan nan nan nan nan nan nan nan nan nan nan nan nan nan nan nan nan nan nan nan nan nan nan nan nan nan nan nan nan nan nan
Wind_Direction
266 265 263 264 266 267 265 268 273 270 268 274 275 272 267 263 258 251 251 249 251 255 254 250 248 252 255 252 249 245 243 243 243 242 243 242 237 240 245 256 255 246 238 231 225 221 235 234 233 233 225 227 233 236 240 246 253 245 240 241 239 245 245 244 235 232 233 230 232 232 237 239 250 258 251 256 268 273 277 274 280 281 285 284 295
265 266 265 262 263 264 265 263 264 266 269 268 271 271 269 264 258 255 251 250 249 250 250 245 242 244 247 247 243 244 242 239 240 241 242 243 243 242 244 250 255 251 247 243 238 231 242 243 236 236 237 231 229 236 240 242 248 250 257 254 246 244 253 245 245 240 236 240 239 239 236 248 242 263 260 255 261 268 271 274 278 280 276 280 278
265 265 264 257 256 258 260 261 262 264 265 265 267 267 264 259 255 250 248 245 244 242 245 241 237 239 241 241 239 239 241 239 237 237 239 243 243 242 246 251 254 256 254 248 245 242 239 246 246 238 239 246 244 237 235 237 239 242 246 253 254 252 254 258 250 250 248 247 246 248 252 257 257 254 261 266 262 265 269 271 272 274 273 272 278
265 265 264 260 253 253 261 264 265 266 265 263 265 264 261 256 250 246 242 242 236 239 239 237 232 233 236 236 238 236 238 236 235 235 237 239 241 242 241 245 252 254 254 255 252 249 249 247 246 248 245 244 243 242 244 243 247 249 251 252 250 248 247 258 265 258 257 256 256 252 251 249 253 257 261 264 264 272 275 272 275 276 279 282 278
269 266 268 267 263 258 260 265 268 267 262 255 258 262 261 257 252 248 245 241 240 234 232 227 224 229 229 233 236 236 235 235 236 231 230 232 235 238 240 242 247 250 251 252 251 252 253 251 252 252 252 247 252 252 250 254 251 250 252 256 257 257 256 255 260 266 266 266 264 265 264 263 261 263 263 262 270 276 277 278 278 279 284 283 276
280 280 277 273 267 259 258 262 267 269 264 257 255 254 253 256 256 252 246 244 237 235 231 231 215 223 228 226 226 233 231 232 234 230 224 224 229 232 234 237 242 247 249 250 253 253 252 255 255 256 256 257 254 255 252 250 252 252 253 252 251 255 259 259 259 259 259 263 265 266 270 272 270 269 271 273 270 274 279 281 282 280 281 285 286
290 286 285 283 274 264 264 272 273 268 266 260 253 255 254 249 256 257 250 245 248 242 237 226 215 218 229 223 217 222 229 230 231 231 225 223 226 228 229 234 237 242 246 249 250 252 252 254 256 256 256 256 257 256 257 258 256 256 254 253 255 255 256 257 258 260 261 261 264 268 269 274 276 273 276 280 280 277 275 278 281 283 285 285 285
299 296 290 285 281 274 273 279 276 268 260 255 253 254 253 250 250 254 254 247 246 247 239 230 223 219 218 225 222 219 218 225 229 230 229 225 225 226 227 230 235 237 241 244 246 246 248 250 254 258 257 257 256 255 255 255 256 256 258 256 255 255 253 254 255 255 258 260 263 265 269 269 274 277 277 280 283 285 286 283 282 280 283 288 289
305 304 299 297 292 285 278 282 279 273 266 258 256 255 254 255 253 249 250 248 247 247 239 232 227 229 229 223 219 216 218 219 220 226 229 232 229 228 230 231 233 236 239 242 246 247 247 247 250 253 256 258 257 254 252 248 252 258 257 254 254 254 254 255 255 258 260 260 258 263 267 270 271 274 276 280 284 282 280 284 285 284 284 282 285
311 315 314 310 302 293 287 286 283 273 265 258 255 264 274 274 265 255 251 251 247 246 239 231 226 228 230 230 228 226 227 226 231 230 226 222 233 232 233 234 235 237 237 238 242 248 250 249 249 254 255 258 262 264 259 255 253 252 253 257 260 262 262 260 261 262 263 262 262 262 265 268 271 276 278 279 278 279 280 282 284 284 282 282 282
322 322 321 318 307 296 297 299 286 266 256 254 256 257 299 288 269 256 247 242 242 245 242 236 228 225 231 236 235 229 228 233 244 242 239 230 225 235 238 238 240 240 242 243 241 246 249 252 252 255 257 259 263 270 269 267 268 267 264 260 256 260 265 267 266 268 266 266 267 266 262 261 263 262 264 266 270 273 275 276 277 279 281 281 282
325 326 318 314 318 314 311 315 305 276 256 256 259 264 271 276 279 266 245 239 236 239 237 240 233 228 229 231 229 226 229 237 245 242 240 240 234 230 235 238 241 245 245 247 251 249 248 248 251 253 258 262 262 267 272 276 276 276 277 277 276 272 266 264 266 269 270 269 267 264 261 260 258 261 261 263 263 264 267 272 273 274 277 280 282
330 320 315 325 332 328 328 328 317 289 262 261 268 275 277 280 283 271 250 240 237 237 238 235 226 222 226 230 228 226 226 237 241 241 240 239 238 232 231 233 236 235 238 247 249 250 250 252 252 254 256 267 265 261 261 270 282 285 283 284 282 283 282 284 278 269 265 268 266 268 270 262 258 259 258 256 257 258 260 265 267 271 276 277 278
338 331 323 332 335 336 336 332 324 309 285 275 275 279 283 292 298 289 263 243 231 231 235 231 222 221 225 228 228 225 224 237 244 246 244 242 239 236 232 232 239 238 236 236 246 249 251 252 254 255 255 257 260 262 262 262 264 273 277 277 276 285 291 291 286 286 280 272 269 269 268 267 262 260 259 258 259 261 261 262 265 268 271 274 273
341 336 337 338 347 347 340 331 332 324 314 300 292 288 290 288 295 296 287 252 231 228 232 231 225 223 224 225 228 228 226 240 248 249 246 243 241 236 233 234 242 243 242 244 246 248 249 252 254 252 254 254 255 257 259 259 260 262 266 270 275 274 276 281 282 279 277 277 276 272 266 266 263 262 263 268 266 265 265 262 264 266 265 264 268
325 335 344 345 349 346 336 328 333 331 327 323 320 314 303 306 305 302 297 266 234 233 236 234 231 229 229 229 227 229 231 249 252 253 251 245 242 235 235 237 238 242 245 246 248 250 250 251 252 253 254 255 257 257 254 252 250 255 259 262 263 266 267 265 261 262 270 273 272 269 268 270 270 269 268 268 270 269 269 269 267 268 267 270 269
322 330 340 344 352 344 333 345 345 337 337 341 341 339 331 320 307 299 309 309 275 252 239 235 231 232 233 230 229 230 232 243 253 254 252 248 240 232 234 236 239 241 241 244 247 250 253 254 253 252 255 257 259 264 265 260 252 247 247 249 252 257 260 262 266 265 261 266 272 269 265 271 273 273 273 272 272 266 260 258 263 264 266 271 275
314 325 333 339 342 338 346 356 348 344 346 354 355 357 356 345 320 297 303 314 321 304 252 235 230 229 230 230 232 236 236 245 255 254 250 248 241 235 236 237 239 238 238 244 245 244 246 254 249 250 253 255 264 266 262 260 256 256 255 254 259 259 259 263 263 268 278 278 277 279 282 279 277 275 272 271 272 272 273 275 277 277 280 280 278
300 307 318 321 329 341 354 353 354 348 350 354 358 3 7 6 342 309 287 319 317 310 298 249 231 228 229 231 238 239 238 242 260 258 252 251 242 232 235 238 240 240 239 241 249 250 249 252 259 256 254 252 254 252 254 254 254 255 259 256 254 258 260 259 262 264 266 266 268 273 272 274 272 272 273 283 285 283 282 282 277 279 281 281 279
293 295 303 316 324 335 343 348 349 354 351 344 351 358 360 7 3 333 296 244 212 198 190 119 296 244 244 245 242 243 241 239 250 254 251 251 251 239 239 240 239 238 240 241 242 245 245 245 254 266 259 252 249 250 255 259 256 254 256 256 250 253 260 262 263 262 264 266 266 269 270 268 269 272 268 269 278 283 286 287 286 285 285 285 287
291 295 299 305 317 329 335 337 341 352 350 340 338 343 2 13 9 5 341 324 315 289 29 72 314 279 261 238 228 234 232 231 239 253 254 263 264 256 246 249 249 244 244 244 242 241 242 244 241 261 273 268 264 260 259 263 258 254 254 257 260 253 251 258 262 266 268 271 274 273 278 277 271 270 274 275 274 277 283 291 291 292 293 292 292
291 291 294 296 307 320 329 331 331 339 342 342 340 343 350 4 10 19 8 359 2 352 316 304 255 262 268 267 227 195 210 212 226 244 255 260 266 268 247 249 247 246 244 242 241 238 240 241 243 248 265 266 264 262 264 263 262 256 252 247 248 247 251 255 260 264 268 271 272 275 274 275 276 273 273 270 271 273 276 280 289 291 291 295 295
293 293 291 292 288 292 301 318 327 330 334 343 340 335 336 353 356 3 19 25 26 11 341 309 283 259 255 225 210 215 227 219 217 236 256 269 276 278 254 231 237 239 240 240 239 237 238 241 242 256 264 266 266 264 264 263 261 254 247 246 248 251 251 257 259 261 265 265 265 266 268 267 265 266 265 265 265 267 268 272 276 279 279 277 288
287 286 284 283 284 283 282 291 303 311 329 330 330 335 334 341 345 353 1 12 23 34 4 328 282 272 262 251 247 233 240 229 217 239 262 282 283 295 294 267 228 233 235 237 236 236 237 236 243 260 262 266 268 268 268 268 256 248 251 250 252 258 257 257 260 264 265 266 269 270 271 271 269 267 269 269 271 272 273 274 277 283 288 288 279
291 288 286 284 285 285 284 283 285 295 315 326 327 329 331 336 338 337 351 1 2 10 338 335 321 322 354 288 253 281 294 290 275 284 287 294 300 298 298 292 270 246 243 247 241 242 252 257 260 263 265 268 272 274 273 276 279 268 262 262 265 261 262 263 263 264 267 269 269 269 269 271 271 270 268 269 268 270 274 276 278 277 277 279 284
302 297 291 286 286 284 287 286 284 278 278 294 313 316 323 328 332 322 328 343 341 345 322 323 319 336 304 288 323 305 294 294 303 304 303 299 304 319 316 293 278 270 258 244 253 262 263 265 268 271 273 273 274 274 272 270 279 278 277 276 266 265 267 268 268 271 270 268 268 268 265 265 267 268 267 268 272 276 276 277 278 280 282 283 284
307 304 300 299 295 292 296 293 291 288 291 274 272 279 298 321 326 326 328 330 327 325 332 311 315 321 308 308 306 287 283 277 282 288 296 295 309 289 291 294 280 268 264 274 266 258 260 265 264 267 269 282 283 272 270 265 272 279 281 283 281 277 276 272 263 263 265 264 266 267 266 266 266 268 272 273 276 279 279 280 281 282 283 284 285
310 311 312 308 304 301 300 286 288 292 289 281 269 264 260 269 287 311 317 311 328 323 326 325 312 305 301 302 298 291 293 295 289 287 283 288 279 268 275 275 271 269 277 275 267 267 268 265 267 277 287 290 288 285 285 284 281 273 269 269 268 265 263 263 nan 267 270 271 270 270 270 271 272 272 272 274 274 274 277 278 278 279 279 278 282
313 314 313 316 311 304 302 300 301 297 294 289 266 247 234 223 231 260 258 246 244 250 296 290 294 289 276 281 294 297 295 303 301 277 262 260 266 279 274 265 264 267 265 272 276 272 261 260 272 284 286 284 283 281 279 279 278 278 275 271 273 275 273 272 272 272 271 272 273 271 270 269 269 268 270 270 269 269 270 271 273 274 276 280 281
317 315 311 309 309 310 307 304 302 299 296 293 286 273 259 256 235 226 245 236 227 226 220 234 233 251 277 273 254 269 281 269 269 272 271 268 261 261 260 259 271 277 277 281 277 278 277 275 276 281 287 287 282 282 283 283 283 nan 280 nan nan nan 275 276 277 278 277 nan nan nan nan nan 273 273 272 270 267 268 269 269 273 275 279 282 282
310 312 309 307 301 300 302 300 296 292 293 292 291 292 288 270 250 243 236 234 226 218 225 215 210 212 228 264 259 246 253 269 275 276 275 273 272 271 271 272 275 281 280 277 276 287 296 296 294 289 282 280 282 nan 280 nan 277 280 283 nan nan 281 nan nan nan nan nan nan nan nan nan nan nan 275 274 274 275 275 276 278 279 281 282 281 283
299 301 303 300 295 296 288 288 290 289 288 289 291 291 287 287 280 258 255 257 252 245 234 227 224 227 232 234 263 270 260 267 281 280 279 276 273 271 270 271 274 274 274 269 282 286 284 285 283 282 283 284 284 282 281 283 286 286 285 285 285 284 nan nan nan nan nan nan nan nan nan nan nan nan nan nan nan 280 279 277 277 278 279 280 281
291 292 294 294 295 297 291 286 283 282 284 284 285 286 287 286 285 284 270 268 269 267 258 250 nan nan 249 246 238 257 280 286 285 284 282 281 nan nan nan nan nan nan nan nan 285 283 283 nan 281 282 283 283 281 283 286 286 286 286 284 283 284 nan 283 nan nan nan nan nan nan nan nan nan nan nan nan nan nan 276 275 276 275 274 275 280 282
289 288 291 292 290 290 290 286 284 281 279 277 276 278 280 280 280 281 284 282 273 268 270 265 nan nan nan nan nan nan nan nan 285 285 nan nan nan nan nan nan nan nan nan nan 285 286 286 286 285 283 284 284 285 287 288 288 285 284 284 nan nan nan nan nan nan nan nan nan nan nan nan nan nan nan nan nan nan nan nan nan nan 275 276 276 278
280 283 290 289 284 283 283 284 284 282 281 278 275 274 274 276 276 278 279 281 283 285 285 274 nan nan nan nan nan nan nan nan nan nan nan nan nan nan nan nan nan nan nan nan nan 290 289 nan nan nan 288 290 290 289 289 288 nan nan nan nan nan nan nan nan nan nan nan nan nan nan nan nan nan nan nan nan nan nan nan nan nan nan nan nan nan
275 276 283 287 281 277 277 278 280 282 281 279 276 271 269 271 274 275 277 278 278 277 276 276 270 nan nan nan nan nan nan nan nan nan nan nan nan nan nan nan 293 295 nan nan nan nan nan nan nan 293 nan 289 287 nan nan nan nan nan nan nan nan nan nan nan nan nan nan nan nan nan nan nan nan nan nan nan nan nan nan nan nan nan nan nan nan
273 276 279 283 282 279 276 275 278 280 281 280 277 275 272 270 270 270 272 274 273 271 271 269 268 nan nan nan nan nan nan nan nan nan nan nan nan nan 290 293 296 294 297 297 nan nan nan nan nan nan nan nan nan nan nan nan nan nan nan nan nan nan nan nan nan nan nan nan nan nan nan nan nan nan nan nan nan nan nan nan nan nan nan nan nan
273 272 275 279 282 281 280 278 277 278 280 282 280 277 277 277 275 274 273 274 274 272 274 276 277 278 281 nan nan nan nan nan nan nan nan nan nan nan nan 292 293 297 296 298 298 nan nan nan nan nan nan nan nan nan nan nan nan nan nan nan nan nan nan nan nan nan nan nan nan nan nan nan nan nan nan nan nan nan nan nan nan nan nan nan nan
268 262 256 262 274 280 282 280 277 275 276 278 280 280 279 279 280 278 276 274 275 276 275 278 279 278 277 276 nan nan nan nan nan nan nan nan nan nan nan 299 297 295 295 295 nan nan nan nan nan nan nan nan nan nan nan nan nan nan nan nan nan nan nan nan nan nan nan nan nan nan nan nan nan nan nan nan nan nan nan nan nan nan nan nan nan
266 267 271 275 278 278 278 279 277 274 271 272 274 276 276 277 279 280 278 273 271 273 275 277 277 274 271 276 280 nan nan nan nan 293 296 nan nan nan nan 303 299 298 296 298 nan nan nan nan nan nan nan nan nan nan nan nan nan nan nan nan nan nan nan nan nan nan nan nan nan nan nan nan nan nan nan nan nan nan nan nan nan nan nan nan nan
264 265 270 276 276 277 277 275 276 275 273 273 272 273 272 272 274 275 275 272 268 269 272 274 274 271 275 280 nan nan 283 286 289 295 299 300 301 303 304 301 300 297 299 nan nan nan nan nan nan nan nan nan nan nan nan nan nan nan nan nan nan nan nan nan nan nan nan nan nan nan nan nan nan nan nan nan nan nan nan nan nan nan nan nan nan
263 266 268 271 273 274 276 275 273 270 269 271 271 268 267 269 272 275 276 273 268 266 269 270 269 266 273 287 nan nan 283 279 282 285 291 296 297 296 298 300 301 302 nan nan nan nan nan nan nan nan nan nan nan nan nan nan nan nan nan nan nan nan nan nan nan nan nan nan nan nan nan nan nan nan nan nan nan nan nan nan nan nan nan nan nan
263 263 265 267 271 273 275 277 277 274 272 270 268 264 260 263 271 275 275 271 263 263 264 267 268 269 272 279 286 nan nan 274 276 282 281 286 291 294 300 301 nan nan nan nan nan nan nan nan nan nan nan nan nan nan nan nan nan nan nan nan nan nan nan nan nan nan nan nan nan nan nan nan nan nan nan nan nan nan nan nan nan nan nan nan nan
262 262 263 265 266 268 271 275 281 278 272 265 258 257 261 265 268 270 271 269 263 258 261 265 267 271 270 nan 268 nan 273 274 276 278 285 289 292 298 297 297 298 296 nan nan nan nan nan 294 292 nan nan nan nan nan nan nan nan nan nan nan nan nan nan nan nan nan nan nan nan nan nan nan nan nan nan nan nan nan nan nan nan nan nan nan nan
259 259 261 262 263 262 266 271 279 283 275 264 258 257 261 264 267 269 266 261 259 257 259 264 268 270 272 271 272 273 273 274 275 277 282 293 301 297 nan nan nan nan nan nan 297 297 297 nan nan nan nan nan nan nan nan nan nan nan nan nan nan nan nan nan nan nan nan nan nan nan nan nan nan nan nan nan nan nan nan nan nan nan nan nan nan
256 258 259 261 261 261 262 271 279 280 273 263 259 261 264 265 265 263 260 256 nan 259 263 265 268 268 268 269 270 271 273 275 276 277 283 292 nan nan nan nan nan nan 297 297 296 296 296 nan nan nan nan nan nan nan nan nan nan nan nan nan nan nan nan nan nan nan nan nan nan nan nan nan nan nan nan nan nan nan nan nan nan nan nan nan nan
252 254 257 259 260 262 264 269 274 274 268 262 258 260 262 263 262 260 256 251 250 256 261 266 268 268 266 265 266 269 273 276 277 280 285 nan 289 nan nan 292 293 295 295 295 296 nan nan nan nan nan nan nan nan nan nan nan nan nan nan nan nan nan nan nan nan nan nan nan nan nan nan nan nan nan nan nan nan nan nan nan nan nan nan nan nan
249 251 255 258 259 261 264 267 269 268 263 260 259 260 260 257 255 252 251 256 257 257 260 265 266 267 267 266 267 269 272 275 276 280 284 286 288 288 288 289 291 292 nan nan nan nan nan nan nan nan nan nan nan nan nan nan nan nan nan nan nan nan nan nan nan nan nan nan nan nan nan nan nan nan nan nan nan nan nan nan nan nan nan nan nan
248 251 255 259 257 258 258 262 264 265 265 262 262 260 256 253 251 253 255 254 254 258 262 263 265 265 266 267 268 270 273 276 278 280 284 287 288 287 287 288 290 nan nan nan nan nan nan nan nan nan nan nan nan nan nan nan nan nan nan nan nan nan nan nan nan nan nan nan nan nan nan nan nan nan nan nan nan nan nan nan nan nan nan nan nan
246 249 252 256 255 253 254 256 260 262 263 263 262 259 257 254 256 256 256 256 258 261 264 267 267 266 266 268 270 272 276 278 281 284 285 287 287 287 288 288 291 293 nan nan nan nan nan nan nan nan nan nan nan nan nan nan nan nan nan nan nan nan nan nan nan nan nan nan nan nan nan nan nan nan nan nan nan nan nan nan nan nan nan nan nan
244 244 247 249 250 250 252 256 nan 261 262 264 263 261 258 255 253 255 257 260 264 267 269 268 266 266 267 269 273 275 278 281 283 284 285 285 285 288 288 290 292 293 nan nan nan nan nan nan nan nan nan nan nan nan nan nan nan nan nan nan nan nan nan nan nan nan nan nan nan nan nan nan nan nan nan nan nan nan nan nan nan nan nan nan nan